Location: Turtle Rock Observatory
(36.6913°N, 81.9708°W)
Time: 11:59:11
(UTC-04:00)

Daily predictions for brighter satellites

Satellite Brightness Start Highest point End
(mag) Time Altitude Azimuth Time Altitude Azimuth Time Altitude Azimuth
USA 215 3.7 21:12:46 10° ESE 21:19:06 54° NE 21:25:27 10° NW
Cosmos 1939 Rocket 3.1 21:19:09 10° S 21:23:14 76° WSW 21:27:17 10° NNW
Cosmos 1048 Rocket 4.0 21:22:07 10° S 21:27:23 74° ESE 21:32:44 10° NNE
Resurs 01 Rocket 1.6 21:23:08 10° SSE 21:27:32 76° ENE 21:31:58 10° N
ERS-2 2.3 21:26:49 10° SSE 21:30:25 57° ENE 21:34:02 10° N
USA 186 2.8 21:27:34 10° S 21:30:39 43° W 21:33:35 10° NNW
SJ-11-01 4.3 21:26:06 10° SSE 21:30:50 83° ENE 21:35:35 10° N
OAO 3 Rocket 3.3 21:26:57 10° W 21:31:55 74° S 21:36:50 10° E
Cosmos 1825 Rocket 3.6 21:33:15 10° S 21:37:41 74° E 21:42:09 10° N
SL-8 R/B 3.9 21:34:04 10° WSW 21:38:53 76° NW 21:43:44 10° NE
Cosmos 1943 4.3 21:33:46 10° NW 21:39:05 43° WSW 21:44:22 10° S
Cosmos 2278 Rocket 3.7 21:37:10 10° SE 21:40:19 16° E 21:43:36 10° ENE
ARGOS 3.9 21:36:18 10° SE 21:41:17 39° ENE 21:46:18 10° N
Cosmos 1315 Rocket 2.8 21:38:34 10° S 21:42:35 75° E 21:46:42 10° NNE
Cosmos 1953 4.3 21:42:47 10° NNW 21:46:14 28° W 21:49:39 10° SSW
Spot 2 Rocket 3.5 21:43:17 10° SSE 21:48:20 89° E 21:53:26 10° NNW
Cosmos 1420 Rocket 4.4 21:47:57 10° NNW 21:53:04 63° WSW 21:58:11 10° S
Cosmos 1452 Rocket 4.2 21:48:30 10° NNW 21:53:39 54° WSW 21:58:46 10° S
Cosmos 1844 Rocket 2.6 21:50:58 10° SSW 21:56:37 79° ESE 22:02:18 10° NNE
CZ-4B DEB 4.4 21:54:23 14° SSE 21:57:12 67° ENE 22:00:39 10° N
COSMOS 2406 4.2 21:55:21 10° N 22:00:33 34° ENE 22:04:22 16° ESE
Cosmos 1844 3.7 21:57:21 10° S 22:02:58 68° ESE 22:08:42 10° NNE
SL-08 RB Rocket 4.2 22:01:16 17° SE 22:04:31 46° ENE 22:09:00 10° N
CZ-3C R/B 3.7 22:00:55 10° SW 22:06:38 14° SSW 22:09:28 11° S
Cosmos 1238 Rocket 2.2 22:04:03 10° SSW 22:06:58 71° W 22:09:59 10° N
KORONAS-FOTON 4.4 22:05:23 20° SSE 22:07:35 37° E 22:11:13 10° NNE
Cosmos 2285 Rocket 4.3 22:01:44 10° SSW 22:08:01 70° WNW 22:14:20 10° NNE
ATLAS 3B R/B 3.5 22:02:08 10° NNW 22:08:11 36° NE 22:12:52 16° ESE
SPOT 5 4.3 22:06:25 16° ESE 22:09:13 26° ENE 22:13:31 10° NNE
Cosmos 1110 Rocket 4.4 22:05:19 10° N 22:10:20 49° ENE 22:13:32 21° SE
USA 238 DEB 4.2 22:05:32 10° NNW 22:12:31 53° NE 22:17:40 19° ESE
USA 238 4.2 22:05:39 10° NNW 22:12:38 53° NE 22:17:45 19° ESE
ATLAS 5 CENTAUR R/B 3.1 22:14:23 18° ESE 22:14:23 18° ESE 22:17:07 10° ENE
Cosmos 2084 3.1 22:10:11 10° NNW 22:14:02 86° ENE 22:16:07 26° SE
Lacrosse 5 4.0 22:10:04 10° W 22:14:31 30° NW 22:19:00 10° NNE
Cosmos 1346 Rocket 2.7 22:12:26 10° N 22:16:29 81° E 22:19:03 22° SSE
Cosmos-2242 3.0 22:13:56 10° N 22:18:20 83° E 22:21:20 20° S
Iridium 18 4.4 22:18:12 28° SSE 22:19:46 62° E 22:23:29 10° N
S3M 4.3 22:15:36 16° SSE 22:20:27 51° E 22:26:36 10° NNE
Meteor 1-24 Rocket 4.2 22:14:44 10° SSW 22:20:43 70° W 22:26:45 10° N
Cosmos 494 Rocket 4.0 22:16:48 10° SSW 22:22:02 88° WNW 22:27:20 10° NNE
H-2A R/B 2.1 22:18:45 20° SSE 22:22:31 77° ENE 22:27:55 10° N
SPOT 1/Viking Rocket 4.5 22:20:08 21° ESE 22:22:38 33° ENE 22:27:12 10° N
Cosmos 1331 Rocket 4.2 22:17:39 10° N 22:22:47 57° ENE 22:25:39 26° SE
Helios 1A 4.0 22:28:25 26° ESE 22:29:46 32° ENE 22:33:31 10° N
Cosmos 2082 Rocket 4.3 22:27:08 10° NNE 22:29:50 13° NE 22:32:30 10° E
Cosmos 1626 4.3 22:31:41 13° ENE 22:31:41 13° ENE 22:32:53 10° NE
Helios 1B rocket 3.4 22:30:04 10° NE 22:33:34 27° E 22:33:41 27° E
Cosmos 1908 3.1 22:32:36 10° N 22:36:29 87° W 22:38:07 33° S
Centaur D-1AR AC-36 4.0 22:27:48 10° WSW 22:36:33 19° SW 22:38:59 15° S
ATLAS 2AS CENTAUR R/B 3.8 22:29:23 10° SW 22:36:59 54° NW 22:44:56 10° NNE
Cosmos 1842 Rocket 4.0 22:33:45 10° N 22:37:57 45° E 22:39:11 35° SE
Aurora 2 Rocket 4.5 22:33:32 10° SW 22:39:11 33° S 22:41:56 26° SE
CZ-2C R/B 4.2 22:36:10 10° NE 22:39:35 17° E 22:39:35 17° E
CSL-04 DEB 4.2 22:40:29 41° SSE 22:41:45 73° ENE 22:45:40 10° N
Cosmos 1340 2.7 22:38:00 10° N 22:41:45 59° E 22:42:33 46° SE
Cosmos 1553 Rocket 3.9 22:37:48 14° S 22:43:03 89° W 22:49:10 10° N
SEDSat Delta rocket 3.8 22:38:36 10° SW 22:43:20 34° SSE 22:43:33 34° SSE
Landsat 7 4.4 22:42:27 31° ESE 22:44:00 41° ENE 22:48:27 10° N
MetOp-B 4.4 22:43:42 22° S 22:47:11 63° WSW 22:52:31 10° NNW
ERS-1 Rocket 3.0 22:46:45 30° S 22:49:17 82° WSW 22:54:21 10° NNW
Cosmos 1302 Rocket 4.2 22:46:34 10° N 22:51:48 57° ENE 22:53:36 38° SE
DMSP B5D2-2 4.0 22:47:44 10° NNE 22:52:59 86° WNW 22:56:34 21° SSW
Cosmos 1674 4.2 22:50:20 12° SW 22:53:32 35° W 22:57:04 10° NNW
GRACE-FO 1 4.5 22:54:42 62° SE 22:55:11 74° E 22:58:53 10° N
GRACE-FO 2 4.5 22:55:08 63° SSE 22:55:37 75° E 22:59:19 10° N
Cosmos 2251 Rocket 3.6 22:56:52 16° SSW 23:01:12 78° WNW 23:06:33 10° NNE
Cosmos 1300 2.9 22:57:41 10° N 23:01:25 51° E 23:01:28 51° E
USA 215 4.0 22:58:50 24° S 23:02:09 40° SW 23:08:14 10° WNW
Meteor 2-10 4.2 22:56:52 10° NNW 23:02:21 79° W 23:04:53 34° S
Terra 2.4 23:02:30 38° ESE 23:03:25 42° ENE 23:07:54 10° N
Cosmos 2315 Rocket 4.4 23:02:11 36° SE 23:04:04 46° E 23:10:05 10° NNE
RESURS DK-1 4.1 23:06:04 20° ENE 23:06:04 20° ENE 23:07:50 10° NE
Cosmos 1386 Rocket 4.3 22:59:01 10° N 23:05:05 73° E 23:07:22 39° SSE
Cosmos 1726 2.8 23:02:43 10° NNW 23:06:22 48° W 23:07:13 39° SW
Okean 3 Rocket 4.4 23:06:52 34° E 23:06:52 34° E 23:10:31 10° NNE
Cosmos 2221 2.7 23:03:43 10° N 23:07:55 50° E 23:08:10 49° E
H-2A R/B 3.8 23:09:34 33° SE 23:09:58 33° SE 23:30:26 10° E
NOSS 2-2 (E) 3.1 23:11:46 73° SSW 23:12:07 85° ESE 23:16:19 10° NNE
NOSS 3-4 (A) 3.5 23:08:11 10° SW 23:14:19 80° WNW 23:20:42 10° NNE
NOSS 3-4 (C) 3.5 23:08:16 10° SW 23:14:24 81° WNW 23:20:47 10° NNE
CENTAUR R/B 4.1 23:07:58 10° NNW 23:15:17 37° NE 23:20:12 21° E
OAO 3 Rocket 3.3 23:10:30 10° W 23:15:20 54° SSW 23:15:31 54° S
Meteor 1-29 3.7 23:13:13 10° NNE 23:15:43 44° NE 23:15:43 44° NE
Cosmos 1328 4.2 23:21:28 49° ENE 23:21:28 49° ENE 23:24:43 10° NNE
CZ-2C R/B 3.5 23:19:33 45° SE 23:21:05 59° ENE 23:26:44 10° N
Cosmos 1461 4.1 23:16:46 10° SW 23:21:13 48° NW 23:25:51 10° NNE
Cosmos 2278 Rocket 2.6 23:18:53 14° SW 23:23:46 61° WNW 23:29:25 10° NNE
ATLAS 3B CENTAUR R/B 3.6 23:17:00 10° WSW 23:33:06 45° S 23:35:03 40° SSE
IGS 5A 3.5 23:33:19 72° WSW 23:33:21 72° W 23:37:29 10° NNW
APEX 4.1 23:32:22 10° NW 23:35:06 41° W 23:35:06 41° W
Nimbus 7 Rocket 4.3 23:33:22 10° NNE 23:39:25 87° ESE 23:41:13 49° SSW
NOSS 2-2 (D) 4.0 23:42:35 48° W 23:43:03 52° NW 23:47:09 10° NNE
CARTOSAT-1 3.9 23:43:53 56° WSW 23:43:57 56° W 23:48:12 10° NNW
COSMOS 2406 4.5 23:39:45 10° NW 23:44:43 31° WSW 23:46:26 26° SW
SPOT 5 4.2 23:45:39 29° SW 23:47:04 34° W 23:51:49 10° NNW
Cosmos 2369 Rocket 4.3 23:54:56 13° ENE 23:54:56 13° ENE 23:56:11 10° ENE
Cosmos 1076 Rocket 4.1 23:55:44 48° W 23:55:46 48° W 23:59:53 10° N
